CW8496 Weather Reports


Display with metric or nautical units.
time (UTC)temp
F
wind
direction
speed
MPH
gust
MPH
rain 1hr
in
rain 24hr
in
rain mn
in
humidity
%
barometer
mb
20260510103019 53 135 2.0 7.0 0.00 0.00 0.00 79 1039.3
20260510100018 53 158 2.0 5.0 0.00 0.00 0.00 79 1038.8
20260510093017 54 135 2.0 6.0 0.00 0.00 0.00 77 1038.2
20260510090017 54 0.0 7.0 0.00 0.00 0.00 72 1037.6
20260510083018 53 0.0 0.0 0.00 0.00 0.00 71 1037.1
20260510080020 54 0.0 2.0 0.00 0.00 0.00 69 1036.7
20260510073039 56 0.0 3.0 0.00 0.00 0.00 64 1036.9
20260510070018 58 135 1.0 5.0 0.00 0.00 0.00 59 1036.8
20260510063017 60 23 1.0 6.0 0.00 0.00 0.00 55 1037.2
20260510060019 61 135 1.0 3.0 0.00 0.00 0.00 53 1037.2
20260510053017 62 0 2.0 8.0 0.00 0.00 0.00 47 1037.2
20260510050017 65 113 2.0 8.0 0.00 0.00 0.00 47 1037.3
20260510043059 66 113 2.0 6.0 0.00 0.00 0.00 48 1037.4
20260510040037 65 113 2.0 7.0 0.00 0.00 0.00 46 1037.2
20260510033017 64 68 2.0 8.0 0.00 0.00 0.00 47 1037.3
20260510030017 64 68 2.0 10.0 0.00 0.00 0.00 46 1037.4
20260510023019 64 23 2.0 7.0 0.00 0.00 0.00 49 1037.6
20260510020017 63 68 2.0 7.0 0.00 0.00 0.00 50 1038.1
20260510013017 63 23 3.0 9.0 0.00 0.00 0.00 55 1038.3
20260510010016 62 45 2.0 8.0 0.00 0.00 0.00 51 1038.3
20260510003018 61 23 3.0 8.0 0.00 0.00 0.00 58 1038.4
20260510000018 60 113 2.0 9.0 0.00 0.00 0.00 58 1038.0
20260509233036 60 113 2.0 6.0 0.00 0.00 0.00 62 1037.9
20260509230019 58 135 2.0 7.0 0.00 0.00 0.00 65 1037.6
20260509223018 56 135 2.0 8.0 0.00 0.00 0.00 67 1037.0
20260509220018 52 158 2.0 7.0 0.00 0.00 0.00 74 1036.3
20260509213018 49 180 2.0 8.0 0.00 0.00 0.00 80 1035.8
20260509210018 47 0.0 5.0 0.00 0.00 0.00 82 1035.4
20260509203022 47 0.0 0.0 0.00 0.00 0.00 80 1035.2
20260509200019 47 0.0 0.0 0.00 0.00 0.00 80 1035.1
20260509193018 48 0.0 0.0 0.00 0.00 0.00 78 1034.9
20260509190018 47 158 1.0 4.0 0.00 0.00 0.00 78 1034.8
20260509183018 48 135 2.0 5.0 0.00 0.00 0.00 77 1035.0
20260509180100 48 158 2.0 6.0 0.00 0.00 0.00 78 1035.1
20260509173039 48 158 1.0 4.0 0.00 0.00 0.00 79 1035.3
20260509170018 48 158 1.0 5.0 0.00 0.00 0.00 79 1035.8
20260509163017 48 158 2.0 6.0 0.00 0.00 0.00 79 1035.7
20260509160038 48 158 2.0 9.0 0.00 0.00 0.00 82 1035.9
20260509153018 48 158 2.0 6.0 0.00 0.00 0.00 83 1035.6
20260509150017 48 158 2.0 5.0 0.00 0.00 0.00 85 1035.8
20260509143038 48 158 1.0 4.0 0.00 0.00 0.00 83 1035.1
20260509140017 48 0.0 0.0 0.00 0.00 0.00 85 1035.4
20260509133018 47 158 1.0 4.0 0.00 0.00 0.00 87 1035.6
20260509130018 46 0.0 4.0 0.00 0.00 0.00 88 1035.5
20260509123018 46 0.0 3.0 0.00 0.00 0.00 90 1035.2
20260509120018 45 0.0 0.0 0.00 0.00 0.00 91 1034.8
20260509113038 45 0.0 0.0 0.00 0.00 0.00 91 1034.9
20260509110018 45 0.0 0.0 0.00 0.00 0.00 91 1034.6